1498536001.11,7791,19.19,74030.0,6.61,-7.39,-2.75,0,*49
1498536002.29,7792,19.19,74032.3,6.63,-7.49,-2.83,0,*46
1498536003.5,7793,19.19,74030.5,6.63,-7.53,-2.75,0,*45
1498536004.71,7794,19.19,74030.5,6.63,-7.77,-2.99,0,*46
1498536005.92,7795,19.19,74030.5,6.65,-7.83,-3.07,0,*4C
1498536007.12,7796,19.19,74030.0,6.67,-8.03,-3.19,0,*45
1498536008.34,7797,19.19,74028.5,6.65,-8.03,-3.23,0,*4F
1498536009.55,7798,19.19,74030.0,6.65,-8.17,-3.39,0,*4E
1498536010.76,7799,19.19,74026.3,6.65,-8.45,-3.39,0,*48
1498536011.98,7800,19.19,74024.8,6.65,-8.59,-3.63,0,*45
1498536013.21,7801,19.19,74026.3,6.65,-8.75,-3.71,0,*49
1498536014.42,7802,19.19,74028.0,6.65,-8.97,-3.87,0,*4F
1498536015.6,7803,19.19,74022.5,6.63,-8.89,-3.83,0,*43
1498536016.84,7804,19.19,74022.3,6.65,-9.11,-3.87,0,*46
1498536018.08,7805,19.19,74022.3,6.65,-9.15,-4.09,0,*42
1498536019.29,7806,19.19,74022.5,6.65,-9.27,-4.13,0,*4B
1498536020.48,7807,19.19,74020.8,6.63,-9.27,-4.09,0,*47
1498536021.69,7808,19.19,74022.5,6.63,-9.41,-4.13,0,*43
1498536022.93,7809,19.19,74018.5,6.65,-9.45,-4.21,0,*41
1498536024.12,7810,19.19,74018.3,6.63,-9.79,-4.37,0,*47
1498536025.31,7811,19.19,74020.3,6.63,-10.05,-4.61,0,*76
1498536026.5,7812,19.19,74020.8,6.63,-10.15,-4.61,0,*74
1498536027.71,7813,19.19,74022.5,6.61,-10.01,-4.33,0,*75
1498536028.93,7814,19.19,74020.5,6.61,-10.01,-4.25,0,*75
1498536030.16,7815,19.19,74020.3,6.61,-9.83,-4.05,0,*44
1498536031.36,7816,19.19,74022.3,6.61,-9.89,-3.91,0,*47
1498536032.56,7817,19.19,74022.3,6.63,-9.83,-3.87,0,*49
1498536033.76,7818,19.19,74022.8,6.63,-9.79,-3.63,0,*49
1498536034.97,7819,19.19,74028.0,6.63,-9.79,-3.59,0,*41
1498536036.2,7820,19.19,74022.5,6.59,-9.83,-3.43,0,*4C
1498536037.41,7821,19.19,74026.5,6.61,-9.75,-3.39,0,*42
1498536038.62,7822,19.19,74026.8,6.61,-9.71,-3.35,0,*49
1498536039.84,7823,19.19,74020.5,6.61,-9.57,-3.15,0,*4E
1498536041.06,7824,19.19,74024.8,6.61,-9.57,-3.23,0,*4C
1498536042.29,7825,19.19,74024.3,6.61,-9.61,-3.23,0,*48
1498536043.5,7826,19.19,74026.8,6.61,-9.71,-3.03,0,*48
1498536044.7,7827,19.19,74024.3,6.61,-9.89,-3.03,0,*4E
1498536045.91,7828,19.19,74030.3,6.61,-9.75,-2.87,0,*4F
1498536047.09,7829,19.19,74028.0,6.59,-9.89,-2.79,0,*47
1498536048.3,7830,19.19,74028.0,6.59,-9.57,-2.39,0,*48
1498536049.56,7831,19.19,74028.5,6.61,-9.49,-2.11,0,*47
1498536050.81,7832,19.19,74030.3,6.61,-9.61,-2.03,0,*4D
1498536052.07,7833,19.19,74026.5,6.61,-9.57,-1.91,0,*41
1498536053.33,7834,19.19,74028.8,6.61,-9.49,-1.87,0,*4E
1498536054.57,7835,19.19,74022.8,6.61,-9.37,-1.79,0,*47
1498536055.79,7836,19.19,74028.8,6.65,-8.89,-1.67,0,*4B
1498536057.02,7837,19.19,74034.0,6.65,-8.97,-1.83,0,*4F
1498536058.23,7838,19.19,74028.3,6.63,-8.97,-1.95,0,*41
1498536059.44,7839,19.19,74020.0,6.63,-9.01,-1.95,0,*4E
1498536060.65,7840,19.19,74012.0,6.63,-9.23,-2.07,0,*48
1498536061.9,7841,19.19,74010.5,6.63,-9.41,-2.07,0,*4D
1498536063.14,7842,19.19,74020.3,6.63,-9.15,-1.83,0,*40
1498536064.33,7843,19.19,74020.0,6.63,-9.01,-1.59,0,*43
1498536065.52,7844,19.19,74026.8,6.63,-8.97,-1.55,0,*46
1498536066.76,7845,19.19,74030.5,6.65,-8.89,-1.47,0,*4D
1498536067.98,7846,19.19,74028.3,6.63,-8.89,-1.43,0,*4C
1498536069.22,7847,19.19,74028.5,6.65,-8.71,-1.35,0,*4D
1498536070.4,7848,19.19,74028.8,6.63,-8.63,-1.33,0,*41
1498536071.64,7849,19.19,74030.8,6.65,-8.71,-1.35,0,*43
1498536072.88,7850,19.19,74030.5,6.65,-8.63,-1.47,0,*4D
1498536074.14,7851,19.19,74028.3,6.65,-8.51,-1.35,0,*48
1498536075.32,7852,19.19,74026.0,6.63,-8.33,-1.25,0,*48
1498536076.53,7853,19.19,74022.8,6.65,-8.41,-1.25,0,*4A
1498536077.71,7854,19.19,74030.3,6.63,-8.29,-1.33,0,*42
1498536078.94,7855,19.19,74030.3,6.65,-8.33,-1.35,0,*48
1498536080.17,7856,19.19,74028.0,6.65,-8.33,-1.43,0,*4A
1498536081.4,7857,19.19,74022.8,6.65,-8.21,-1.47,0,*4C
1498536082.61,7858,19.19,74024.3,6.65,-8.21,-1.55,0,*40
1498536083.84,7859,19.19,74024.5,6.65,-8.07,-1.55,0,*45
1498536085.04,7860,19.19,74022.0,6.63,-8.03,-1.59,0,*41
1498536086.28,7861,19.19,74020.3,6.65,-7.91,-1.67,0,*4F
1498536087.54,7862,19.19,74022.5,6.65,-7.95,-1.83,0,*42
1498536088.77,7863,19.19,74020.8,6.63,-7.91,-1.83,0,*41
1498536090.0,7864,19.19,74020.3,6.65,-7.83,-1.95,0,*44
1498536091.26,7865,19.19,74022.5,6.65,-7.69,-2.07,0,*49
1498536092.53,7866,19.19,74024.8,6.65,-7.57,-1.99,0,*43
1498536093.74,7867,19.19,74020.8,6.63,-7.53,-1.99,0,*40
1498536094.92,7868,19.19,74022.8,6.63,-7.49,-2.19,0,*4F
1498536096.15,7869,19.19,74020.0,6.65,-7.39,-2.23,0,*46
1498536097.37,7870,19.19,74022.5,6.63,-7.27,-2.31,0,*44
1498536098.56,7871,19.19,74016.3,6.63,-7.15,-2.31,0,*44
1498536099.74,7872,19.19,74018.3,6.63,-7.15,-2.35,0,*43
1498536100.96,7873,19.19,74022.8,6.63,-7.15,-2.47,0,*47
1498536102.18,7874,19.19,74024.3,6.63,-7.11,-2.63,0,*42
1498536103.42,7875,19.19,74020.0,6.65,-7.11,-2.71,0,*46
1498536104.64,7876,19.19,74022.5,6.63,-7.11,-2.75,0,*47
1498536105.82,7877,19.19,74020.3,6.63,-6.89,-2.83,0,*4F
1498536107.0,7878,19.19,74020.0,6.63,-6.89,-2.83,0,*40
1498536108.2,7879,19.19,74020.8,6.63,-6.77,-2.95,0,*47
1498536109.38,7880,19.19,74018.8,6.63,-6.85,-3.11,0,*41
1498536110.58,7881,19.19,74022.3,6.63,-7.01,-3.39,0,*47
1498536111.79,7882,19.19,74018.0,6.63,-7.11,-3.51,0,*4B
1498536113.02,7883,19.19,74016.5,6.63,-7.01,-3.51,0,*4B
1498536114.24,7884,19.19,74016.3,6.61,-7.15,-3.75,0,*4D
1498536115.45,7885,19.19,74020.5,6.61,-7.19,-3.91,0,*4A
1498536116.68,7886,19.19,74018.5,6.61,-7.27,-4.05,0,*4E
1498536117.89,7887,19.19,74018.5,6.63,-7.39,-4.09,0,*4E
1498536119.11,7888,19.19,74022.5,6.63,-7.57,-4.25,0,*47
1498536120.32,7889,19.19,74018.3,6.63,-7.77,-4.29,0,*48
1498536121.53,7890,19.25,74022.5,6.63,-7.95,-4.37,0,*43
1498536122.71,7891,19.19,74016.5,6.63,-8.21,-4.41,0,*43
1498536123.9,7892,19.19,74022.8,6.63,-8.29,-4.41,0,*48
1498536125.08,7893,19.19,74026.3,6.63,-8.45,-4.49,0,*4B
1498536126.27,7894,19.19,74026.0,6.63,-8.45,-4.37,0,*45
1498536127.49,7895,19.19,74024.3,6.61,-8.63,-4.41,0,*43
1498536128.7,7896,19.19,74026.5,6.61,-8.63,-4.53,0,*43
1498536129.94,7897,19.19,74022.3,6.61,-8.81,-4.65,0,*4B
1498536131.14,7898,19.19,74022.3,6.59,-8.89,-4.65,0,*47
1498536132.36,7899,19.19,74024.8,6.61,-9.01,-4.57,0,*4D
1498536133.55,7900,19.19,74024.8,6.63,-9.01,-4.49,0,*41
1498536134.74,7901,19.19,74028.5,6.63,-9.27,-4.49,0,*44
1498536135.94,7902,19.19,74024.5,6.63,-9.57,-4.61,0,*4A
1498536137.13,7903,19.19,74028.3,6.63,-9.79,-4.53,0,*46
1498536138.32,7904,19.19,74030.5,6.63,-9.79,-4.29,0,*4C
1498536139.5,7905,19.19,74028.0,6.63,-9.93,-4.21,0,*41
1498536140.71,7906,19.19,74026.5,6.65,-9.79,-4.09,0,*4A
1498536141.91,7907,19.19,74030.3,6.63,-9.83,-3.87,0,*49
1498536143.12,7908,19.19,74026.3,6.63,-9.79,-3.63,0,*49
1498536144.34,7909,19.19,74028.0,6.63,-9.83,-3.59,0,*44
1498536145.59,7910,19.19,74030.3,6.65,-9.83,-3.47,0,*45
1498536146.81,7911,19.19,74028.3,6.65,-10.05,-3.47,0,*72
1498536148.01,7912,19.19,74030.3,6.65,-10.05,-3.39,0,*78
1498536149.21,7913,19.19,74030.0,6.65,-9.93,-3.23,0,*45
1498536150.42,7914,19.19,74032.8,6.69,-9.75,-2.95,0,*4A
1498536151.61,7915,19.25,74032.3,6.67,-9.75,-2.83,0,*42
1498536152.79,7916,19.19,74030.8,6.67,-9.67,-2.79,0,*47
1498536154.0,7917,19.19,74030.8,6.69,-9.75,-2.87,0,*4A
1498536155.2,7918,19.19,74030.0,6.67,-9.53,-2.79,0,*4E
1498536156.42,7919,19.19,74026.5,6.67,-9.27,-2.71,0,*44
1498536157.64,7920,19.19,74030.5,6.67,-9.05,-2.59,0,*44
1498536158.85,7921,19.19,74030.0,6.69,-8.63,-2.27,0,*43
1498536160.06,7922,19.19,74026.5,6.69,-8.25,-2.23,0,*46
1498536161.29,7923,19.19,74030.3,6.69,-8.07,-2.39,0,*4C
1498536162.53,7924,19.19,74028.3,6.69,-7.95,-2.35,0,*43
1498536163.74,7925,19.19,74026.8,6.69,-7.87,-2.35,0,*41
1498536165.0,7926,19.19,74024.8,6.69,-7.95,-2.63,0,*42
1498536166.23,7927,19.19,74028.3,6.69,-7.83,-2.63,0,*44
1498536167.45,7928,19.19,74024.0,6.71,-7.83,-2.63,0,*42
1498536168.69,7929,19.19,74028.8,6.73,-7.83,-2.51,0,*40
1498536169.9,7930,19.19,74026.8,6.71,-7.83,-2.55,0,*4E
1498536171.11,7931,19.25,74028.8,6.71,-7.83,-2.47,0,*4C
1498536172.35,7932,19.19,74026.8,6.73,-8.17,-2.59,0,*40
1498536173.59,7933,19.19,74024.0,6.73,-8.45,-2.63,0,*4F
1498536174.8,7934,19.19,74026.5,6.73,-8.37,-2.35,0,*4E
1498536176.03,7935,19.19,74028.3,6.73,-8.29,-2.11,0,*46
1498536177.26,7936,19.19,74032.3,6.73,-8.29,-1.83,0,*4D
1498536178.47,7937,19.19,74028.8,6.73,-8.17,-1.75,0,*48
1498536179.68,7938,19.19,74034.0,6.73,-8.21,-1.63,0,*45
1498536180.91,7939,19.19,74030.0,6.73,-8.03,-1.59,0,*4D
1498536182.14,7940,19.25,74032.0,6.73,-8.33,-1.83,0,*47
1498536183.34,7941,19.19,74030.8,6.75,-8.45,-1.95,0,*46
1498536184.55,7942,19.19,74026.5,6.75,-8.03,-1.71,0,*4D
1498536185.76,7943,19.19,74024.8,6.75,-7.83,-1.35,0,*4B
1498536186.99,7944,19.19,74024.3,6.75,-7.39,-1.09,0,*42
1498536188.19,7945,19.19,74024.0,6.79,-7.15,-1.09,0,*41
1498536189.42,7946,19.19,74024.5,6.79,-6.93,-1.05,0,*41
1498536190.63,7947,19.25,74030.3,6.75,-6.89,-1.09,0,*4B
1498536191.83,7948,19.19,74024.8,6.79,-6.69,-1.09,0,*46
1498536193.04,7949,19.19,74024.5,6.79,-6.51,-1.05,0,*40
1498536194.25,7950,19.19,74026.0,6.75,-6.43,-1.09,0,*4B
1498536195.45,7951,19.19,74028.5,6.79,-6.31,-1.05,0,*4F
1498536196.64,7952,19.19,74030.8,6.75,-6.35,-1.21,0,*42
1498536197.85,7953,19.25,74030.5,6.79,-6.13,-1.05,0,*4D
1498536199.04,7954,19.19,74028.3,6.79,-6.13,-0.93,0,*74
1498536200.25,7955,19.19,74030.5,6.79,-5.93,-0.81,0,*7D
1498536201.44,7956,19.19,74030.5,6.79,-6.05,-0.93,0,*71
1498536202.64,7957,19.19,74030.0,6.81,-5.97,-0.81,0,*7C
1498536203.84,7958,19.19,74028.0,6.81,-6.01,-0.81,0,*7F
1498536205.07,7959,19.19,74026.8,6.81,-5.85,-0.77,0,*78
1498536206.3,7960,19.19,74026.5,6.81,-5.77,-0.81,0,*76
1498536207.47,7961,19.19,74030.8,6.79,-5.35,-0.53,0,*79
1498536208.68,7962,19.19,74030.5,6.75,-5.07,-0.57,0,*73
1498536209.89,7963,19.19,74030.5,6.75,-4.73,-0.37,0,*76
1498536211.07,7964,19.19,74030.0,6.75,-4.41,-0.37,0,*70
1498536212.25,7965,19.19,74030.3,6.79,-4.21,-0.29,0,*74
1498536213.45,7966,19.19,74024.3,6.79,-3.95,-0.23,0,*75
1498536214.64,7967,19.19,74028.0,6.75,-3.91,-0.33,0,*7D
1498536215.83,7968,19.19,74024.0,6.75,-3.87,-0.37,0,*71
1498536217.02,7969,19.25,74028.0,6.75,-3.75,-0.37,0,*7D
1498536218.2,7970,19.19,74028.8,6.75,-3.35,0.01,0,*69
1498536219.4,7971,19.19,74030.8,6.75,-3.19,0.13,0,*55
1498536220.59,7972,19.19,74032.0,6.79,-3.03,0.21,0,*50
1498536221.79,7973,19.19,74028.5,6.79,-3.03,0.21,0,*51
1498536222.98,7974,19.25,74030.5,6.79,-2.79,0.33,0,*59
1498536224.15,7975,19.19,74028.8,6.83,-2.79,0.43,0,*5A
1498536225.4,7976,19.19,74030.8,6.81,-2.75,0.37,0,*54
1498536226.62,7977,19.19,74028.0,6.83,-2.75,0.25,0,*54
1498536227.86,7978,19.19,74028.0,6.81,-2.67,0.21,0,*5E
1498536229.06,7979,19.19,74032.0,6.81,-2.91,-0.19,0,*70
1498536230.26,7980,19.25,74032.5,6.83,-2.79,-0.27,0,*7F
1498536231.48,7981,19.19,74028.3,6.81,-2.39,-0.27,0,*78
1498536232.65,7982,19.25,74032.3,6.83,-2.39,-0.61,0,*7B
1498536233.86,7983,19.19,74030.0,6.83,-2.39,-1.01,0,*4D
1498536235.08,7984,19.25,74032.5,6.81,-2.39,-1.39,0,*43
1498536236.28,7985,19.25,74034.8,6.81,-2.39,-1.79,0,*46
1498536237.52,7986,19.19,74030.3,6.81,-2.51,-2.23,0,*47
1498536238.75,7987,19.19,74032.5,6.83,-2.67,-2.67,0,*41
1498536239.95,7988,19.19,74032.8,6.81,-3.03,-3.19,0,*47
1498536241.16,7989,19.19,74032.8,6.83,-3.51,-3.75,0,*49
1498536242.35,7990,19.19,74032.8,6.83,-3.87,-4.09,0,*46
1498536243.53,7991,19.19,74034.0,6.83,-4.17,-4.45,0,*41
1498536244.75,7992,19.19,74034.3,6.83,-4.57,-4.85,0,*4A
1498536245.97,7993,19.19,74032.3,6.81,-5.11,-5.43,0,*41
1498536247.2,7994,19.25,74036.0,6.81,-5.61,-6.13,0,*47
1498536248.4,7995,19.25,74036.3,6.81,-6.09,-6.55,0,*49
1498536249.63,7996,19.25,74034.0,6.81,-6.81,-7.05,0,*4E
1498536250.87,7997,19.25,74032.8,6.83,-7.57,-7.61,0,*45
1498536252.11,7998,19.19,74030.5,6.83,-7.99,-7.73,0,*4B
1498536253.32,7999,19.25,74034.0,6.81,-8.75,-8.21,0,*4D
1498536254.52,8000,19.25,74034.8,6.81,-9.23,-8.29,0,*41
1498536255.76,8001,19.19,74032.0,6.81,-9.31,-8.07,0,*4F
1498536256.95,8002,19.25,74034.3,6.79,-9.93,-8.03,0,*47
1498536258.16,8003,19.19,74032.5,6.79,-10.19,-8.03,0,*7C
1498536259.36,8004,19.25,74030.5,6.79,-10.49,-8.03,0,*7E
1498536260.61,8005,19.25,74032.8,6.75,-10.67,-7.91,0,*7B
1498536261.81,8006,19.19,74028.8,6.75,-10.53,-7.69,0,*78
1498536263.03,8007,19.25,74034.3,6.79,-10.57,-7.61,0,*79
1498536264.23,8008,19.19,74028.8,6.79,-10.57,-7.69,0,*7E
1498536265.45,8009,19.19,74030.3,6.79,-10.71,-7.87,0,*7B
1498536266.66,8010,19.25,74032.5,6.79,-11.29,-8.45,0,*7E
1498536267.86,8011,19.19,74028.3,6.79,-11.29,-8.67,0,*7F
1498536269.05,8012,19.25,74030.3,6.79,-11.41,-8.97,0,*7D
1498536270.29,8013,19.19,74028.3,6.75,-11.67,-9.49,0,*76
1498536271.51,8014,19.25,74028.0,6.75,-11.63,-9.67,0,*79
1498536272.72,8015,19.19,74026.8,6.79,-11.85,-9.97,0,*73
1498536273.93,8016,19.19,74030.0,6.79,-12.11,-10.05,0,*4D
1498536275.14,8017,19.25,74028.5,6.75,-12.47,-10.35,0,*40
1498536276.37,8018,19.25,74032.3,6.75,-12.65,-10.35,0,*4F
1498536277.59,8019,19.25,74034.3,6.75,-13.07,-10.41,0,*48
1498536278.81,8020,19.19,74030.5,6.79,-13.29,-10.45,0,*46
1498536280.01,8021,19.19,74030.0,6.75,-13.55,-10.45,0,*40
1498536281.21,8022,19.25,74034.8,6.75,-13.73,-10.35,0,*40
1498536282.44,8023,19.19,74028.5,6.75,-13.87,-10.15,0,*48
1498536283.65,8024,19.25,74030.3,6.79,-13.87,-9.97,0,*71
1498536284.9,8025,19.25,74030.0,6.75,-14.01,-9.83,0,*70
1498536286.11,8026,19.25,74030.8,6.75,-13.65,-9.57,0,*7F
1498536287.29,8027,19.25,74030.8,6.75,-13.55,-9.31,0,*7D
1498536288.48,8028,19.25,74032.3,6.75,-13.07,-8.63,0,*73
1498536289.66,8029,19.25,74036.0,6.75,-12.89,-8.63,0,*75
1498536290.87,8030,19.19,74032.8,6.79,-12.57,-8.45,0,*76
1498536292.08,8031,19.25,74032.8,6.79,-12.57,-8.45,0,*77
1498536293.28,8032,19.25,74032.5,6.79,-12.71,-8.67,0,*70
1498536294.48,8033,19.25,74034.3,6.79,-12.61,-8.71,0,*77
1498536295.73,8034,19.25,74032.8,6.81,-12.65,-8.81,0,*7C
1498536296.94,8035,19.25,74036.5,6.83,-12.53,-8.67,0,*72
1498536298.14,8036,19.19,74034.3,6.81,-12.47,-8.67,0,*76
1498536299.38,8037,19.25,74036.3,6.81,-12.53,-8.75,0,*71
1498536300.57,8038,19.25,74036.0,6.83,-12.93,-8.93,0,*78
1498536301.81,8039,19.25,74036.5,6.81,-13.23,-9.11,0,*7A
1498536303.0,8040,19.25,74036.3,6.83,-13.69,-9.01,0,*79
1498536304.23,8041,19.25,74036.0,6.83,-13.83,-8.89,0,*7D
1498536305.44,8042,19.19,74032.0,6.83,-14.05,-8.63,0,*73
1498536306.64,8043,19.25,74034.8,6.83,-14.19,-8.21,0,*79
1498536307.85,8044,19.25,74032.5,6.85,-14.37,-7.95,0,*74
1498536309.09,8045,19.25,74034.3,6.83,-14.79,-8.07,0,*7D
1498536310.34,8046,19.25,74028.5,6.83,-14.55,-7.57,0,*7A
1498536311.55,8047,19.19,74030.3,6.83,-14.69,-7.31,0,*74
1498536312.79,8048,19.25,74030.3,6.85,-14.47,-6.97,0,*7C
1498536314.02,8049,19.25,74028.3,6.83,-13.97,-6.51,0,*7B
1498536315.24,8050,19.25,74028.0,6.81,-13.51,-6.35,0,*79
1498536316.47,8051,19.25,74030.5,6.81,-12.83,-5.97,0,*7D
1498536317.72,8052,19.25,74028.0,6.81,-11.97,-5.73,0,*72
1498536318.99,8053,19.25,74030.5,6.81,-11.51,-5.61,0,*7A
1498536320.22,8054,19.25,74030.3,6.81,-10.85,-5.89,0,*73
1498536321.43,8055,19.25,74028.8,6.83,-10.45,-6.27,0,*7B
1498536322.66,8056,19.25,74034.8,6.81,-10.05,-6.63,0,*7E
1498536323.88,8057,19.25,74030.3,6.81,-9.89,-7.01,0,*46
1498536325.11,8058,19.25,74028.8,6.81,-9.75,-7.43,0,*4C
1498536326.34,8059,19.19,74024.5,6.81,-10.01,-7.95,0,*7D
1498536327.55,8060,19.25,74030.3,6.81,-10.31,-8.55,0,*77
1498536328.74,8061,19.25,74030.3,6.81,-10.53,-8.75,0,*70
1498536329.98,8062,19.25,74026.3,6.81,-11.01,-9.11,0,*76
1498536331.17,8063,19.25,74028.5,6.83,-11.23,-9.19,0,*7D
1498536332.39,8064,19.25,74028.8,6.83,-11.37,-9.01,0,*76
1498536333.63,8065,19.25,74028.5,6.81,-11.67,-9.01,0,*70
1498536334.87,8066,19.25,74032.0,6.81,-11.93,-8.93,0,*72
1498536336.11,8067,19.25,74032.3,6.81,-12.53,-9.19,0,*7F
1498536337.31,8068,19.25,74034.8,6.81,-13.07,-9.23,0,*79
1498536338.54,8069,19.25,74034.8,6.81,-13.11,-8.81,0,*76
1498536339.75,8070,19.25,74034.3,6.81,-13.65,-8.75,0,*76
1498536340.99,8071,19.25,74028.5,6.81,-13.83,-8.37,0,*79
1498536342.22,8072,19.25,74030.0,6.81,-13.93,-7.95,0,*7C
1498536343.47,8073,19.25,74030.8,6.79,-13.97,-7.61,0,*75
1498536344.66,8074,19.25,74032.5,6.79,-14.23,-7.23,0,*7C
1498536345.87,8075,19.25,74030.5,6.79,-14.23,-6.97,0,*73
1498536347.06,8076,19.25,74030.3,6.79,-14.15,-6.69,0,*74
1498536348.28,8077,19.19,74026.5,6.79,-14.01,-6.51,0,*7B
1498536349.51,8078,19.25,74028.5,6.81,-13.65,-6.23,0,*73
1498536350.7,8079,19.19,74030.0,6.75,-13.55,-6.05,0,*7E
1498536351.91,8080,19.25,74032.8,6.79,-13.37,-6.01,0,*74
1498536353.14,8081,19.25,74028.3,6.79,-13.37,-5.93,0,*7D
1498536354.39,8082,19.25,74028.3,6.75,-13.29,-5.85,0,*7A
1498536355.6,8083,19.25,74030.0,6.79,-13.11,-5.61,0,*76
1498536356.81,8084,19.19,74030.5,6.79,-12.83,-5.47,0,*7F
1498536358.02,8085,19.25,74034.0,6.79,-12.57,-5.39,0,*7E
1498536359.2,8086,19.25,74030.3,6.79,-12.29,-5.35,0,*78
1498536360.42,8087,19.25,74028.5,6.79,-12.03,-5.27,0,*72
1498536361.63,8088,19.25,74030.8,6.79,-11.77,-5.35,0,*7E
1498536362.84,8089,19.25,74032.5,6.79,-11.55,-5.35,0,*7F
1498536364.03,8090,19.25,74030.5,6.79,-11.23,-5.55,0,*70
1498536365.24,8091,19.25,74028.8,6.79,-11.33,-6.13,0,*71
1498536366.42,8092,19.25,74030.8,6.79,-11.15,-6.43,0,*73
1498536367.6,8093,19.25,74034.5,6.79,-10.85,-6.55,0,*7D
1498536368.78,8094,19.25,74030.3,6.79,-10.49,-6.85,0,*77
1498536369.98,8095,19.25,74032.5,6.75,-10.27,-7.11,0,*7E
1498536371.19,8096,19.19,74030.3,6.75,-10.23,-7.39,0,*73
1498536372.41,8097,19.25,74032.5,6.75,-10.15,-7.69,0,*72
1498536373.62,8098,19.25,74036.0,6.75,-10.01,-7.95,0,*7B
1498536374.82,8099,19.25,74036.0,6.75,-9.83,-8.21,0,*48
1498536376.03,8100,19.25,74032.5,6.73,-9.67,-8.37,0,*42
1498536377.26,8101,19.19,74026.5,6.73,-9.41,-8.29,0,*48
1498536378.47,8102,19.25,74026.5,6.75,-9.31,-8.51,0,*45
1498536379.68,8103,19.25,74030.5,6.75,-9.57,-8.89,0,*41
1498536380.88,8104,19.25,74032.3,6.75,-9.83,-9.19,0,*47
1498536382.09,8105,19.25,74028.3,6.79,-10.19,-9.61,0,*7E
1498536383.28,8106,19.25,74032.5,6.79,-10.57,-9.93,0,*7A
1498536384.47,8107,19.25,74034.0,6.79,-11.01,-10.23,0,*4A
1498536385.69,8108,19.25,74034.5,6.75,-11.73,-10.53,0,*4B
1498536386.91,8109,19.25,74032.5,6.79,-12.03,-10.75,0,*46
1498536388.12,8110,19.25,74032.0,6.79,-12.71,-10.89,0,*48
1498536389.34,8111,19.25,74032.8,6.79,-13.29,-11.01,0,*44
1498536390.56,8112,19.25,74032.3,6.79,-13.97,-10.89,0,*43
1498536391.78,8113,19.25,74030.5,6.79,-14.43,-10.57,0,*4F
1498536393.0,8114,19.25,74030.5,6.79,-14.75,-10.19,0,*47
1498536394.18,8115,19.25,74030.0,6.79,-15.11,-9.67,0,*74
1498536395.36,8116,19.25,74034.5,6.75,-15.53,-9.31,0,*7E
1498536396.57,8117,19.25,74034.0,6.79,-15.85,-8.93,0,*71
1498536397.75,8118,19.25,74034.8,6.79,-16.03,-8.71,0,*7F
1498536398.99,8119,19.25,74038.8,6.81,-16.31,-8.37,0,*7A
1498536400.2,8120,19.25,74038.3,6.81,-16.45,-8.21,0,*74
1498536401.41,8121,19.25,74034.0,6.79,-16.27,-7.87,0,*75
1498536402.64,8122,19.25,74036.0,6.79,-16.27,-7.73,0,*7D
1498536403.88,8123,19.25,74030.8,6.79,-16.13,-7.61,0,*78
1498536405.12,8124,19.25,74028.3,6.81,-15.85,-7.19,0,*7B
1498536406.31,8125,19.25,74024.8,6.79,-15.75,-7.11,0,*7A
1498536407.51,8126,19.25,74026.0,6.79,-15.71,-7.05,0,*78
1498536408.72,8127,19.25,74022.5,6.79,-15.63,-6.97,0,*70
1498536409.91,8128,19.25,74020.0,6.79,-15.75,-6.81,0,*7F
1498536411.1,8129,19.19,74018.5,6.79,-15.63,-6.51,0,*74
1498536412.29,8130,19.25,74026.0,6.75,-15.49,-6.09,0,*75
1498536413.52,8131,19.25,74024.5,6.79,-15.39,-5.65,0,*76
1498536414.76,8132,19.25,74026.0,6.79,-15.57,-5.61,0,*79
1498536416.0,8133,19.25,74030.3,6.75,-15.43,-5.27,0,*73
1498536417.21,8134,19.25,74028.0,6.79,-15.11,-4.73,0,*7F
1498536418.39,8135,19.25,74026.8,6.75,-14.65,-4.29,0,*7F
1498536419.58,8136,19.25,74024.0,6.79,-14.61,-4.13,0,*7D
1498536420.75,8137,19.25,74028.0,6.79,-14.69,-4.05,0,*73
1498536421.96,8138,19.25,74030.3,6.79,-14.23,-3.55,0,*70
1498536423.17,8139,19.25,74030.3,6.79,-13.97,-3.23,0,*78
1498536424.35,8140,19.25,74028.0,6.79,-13.73,-2.91,0,*74
1498536425.56,8141,19.25,74024.8,6.79,-13.43,-2.47,0,*7D
1498536426.79,8142,19.25,74026.3,6.79,-12.83,-1.95,0,*7F
1498536428.0,8143,19.25,74030.5,6.79,-12.71,-1.71,0,*79
1498536429.24,8144,19.25,74030.0,6.81,-12.47,-1.47,0,*79
1498536430.5,8145,19.25,74030.0,6.81,-11.81,-1.05,0,*77
1498536431.75,8146,19.25,74028.3,6.81,-11.55,-0.93,0,*43
1498536432.93,8147,19.25,74032.3,6.79,-11.15,-0.69,0,*44
1498536434.11,8148,19.25,74030.8,6.79,-10.31,-0.45,0,*42
1498536435.31,8149,19.25,74030.8,6.79,-9.53,-0.11,0,*7E
1498536436.48,8150,19.25,74032.8,6.79,-8.85,0.09,0,*68
1498536437.65,8151,19.25,74030.0,6.79,-8.17,0.09,0,*62
1498536438.9,8152,19.25,74028.8,6.81,-7.57,0.21,0,*57
1498536440.11,8153,19.25,74030.0,6.81,-7.19,-0.15,0,*76
1498536441.32,8154,19.25,74030.3,6.81,-6.55,-0.15,0,*78
1498536442.52,8155,19.25,74028.8,6.81,-6.09,0.01,0,*68
1498536443.72,8156,19.25,74032.5,6.81,-6.09,-0.07,0,*40
1498536444.94,8157,19.25,74028.3,6.81,-5.47,0.21,0,*51
1498536446.14,8158,19.25,74034.0,6.83,-5.35,0.25,0,*5D
1498536447.33,8159,19.25,74028.8,6.83,-5.35,0.33,0,*5B
1498536448.55,8160,19.25,74032.3,6.83,-5.31,0.33,0,*55
1498536449.76,8161,19.25,74032.0,6.83,-5.23,0.43,0,*50
1498536451.0,8162,19.25,74034.3,6.87,-4.81,0.71,0,*5F
1498536452.2,8163,19.25,74030.3,6.85,-4.61,0.91,0,*5C
1498536453.4,8164,19.25,74032.3,6.87,-4.41,1.01,0,*63
1498536454.58,8165,19.25,74034.0,6.89,-4.25,1.05,0,*6A
1498536455.84,8166,19.25,74032.0,6.87,-4.01,1.25,0,*63
1498536457.09,8167,19.25,74034.8,6.87,-3.63,1.71,0,*60
1498536458.33,8168,19.25,74032.5,6.91,-3.31,2.01,0,*6B
1498536459.56,8169,19.25,74030.8,6.91,-3.27,2.01,0,*6D
1498536460.76,8170,19.25,74034.0,6.91,-2.99,2.35,0,*66
1498536462.0,8171,19.25,74034.5,6.91,-2.79,2.47,0,*6C
1498536463.23,8172,19.25,74030.8,6.95,-2.47,2.65,0,*66
1498536464.41,8173,19.25,74034.3,6.93,-2.31,2.65,0,*60
1498536465.66,8174,19.25,74032.0,6.95,-2.11,2.77,0,*60
1498536466.87,8175,19.25,74034.0,6.97,-1.63,2.81,0,*6C
1498536468.1,8176,19.25,74030.5,6.97,-1.39,2.77,0,*69
1498536469.33,8177,19.25,74032.3,6.99,-1.09,2.61,0,*62
1498536470.53,8178,19.25,74032.5,7.03,-0.69,2.65,0,*5C
1498536471.76,8179,19.25,74032.3,7.03,-0.53,2.59,0,*5B
1498536472.98,8180,19.25,74032.8,7.03,-0.37,2.47,0,*50
1498536474.2,8181,19.25,74032.5,7.03,-0.29,2.17,0,*5B
1498536475.43,8182,19.25,74034.3,7.03,-0.19,2.13,0,*5F
1498536476.59,8183,19.25,74034.3,7.05,0.05,2.35,0,*4C
1498536477.78,8184,19.25,74034.8,7.05,0.09,2.17,0,*47
1498536478.97,8185,19.25,74034.8,7.05,-0.03,1.93,0,*6E
1498536480.16,8186,19.25,74036.0,7.05,0.05,2.13,0,*4D
1498536481.37,8187,19.25,74032.8,7.07,0.09,1.97,0,*4D
1498536482.61,8188,19.25,74032.3,7.07,0.13,2.17,0,*72
1498536483.84,8189,19.25,74032.3,7.07,0.13,1.97,0,*78
1498536485.07,8190,19.25,74036.3,7.07,-0.11,1.85,0,*5C
1498536486.29,8191,19.25,74034.0,7.07,-0.03,2.05,0,*65
1498536487.5,8192,19.25,74034.3,7.07,-0.03,1.97,0,*6E
1498536488.72,8193,19.25,74034.0,7.07,-0.03,2.05,0,*67
1498536489.97,8194,19.25,74030.3,7.07,0.21,2.17,0,*7E
1498536491.18,8195,19.25,74034.0,7.09,0.29,2.17,0,*79
1498536492.37,8196,19.25,74032.5,7.09,0.51,2.27,0,*76
1498536493.57,8197,19.25,74036.3,7.09,0.63,2.21,0,*70
1498536494.79,8198,19.25,74032.5,7.07,0.97,2.21,0,*7A
1498536496.02,8199,19.25,74034.5,7.09,1.09,2.09,0,*49
1498536497.21,8200,19.25,74036.3,7.09,1.01,1.71,0,*4E
1498536498.41,8201,19.25,74036.3,7.09,1.05,1.37,0,*49
1498536499.6,8202,19.25,74036.3,7.09,1.09,1.05,0,*47
1498536500.83,8203,19.25,74034.8,7.09,1.37,0.87,0,*70
1498536502.08,8204,19.25,74036.0,7.07,1.47,0.75,0,*73
1498536503.32,8205,19.25,74034.0,7.11,1.29,0.29,0,*74
1498536504.54,8206,19.25,74034.8,7.11,1.13,0.01,0,*44
1498536505.73,8207,19.25,74034.0,7.09,0.95,-0.45,0,*6E
1498536506.96,8208,19.25,74034.8,7.11,0.87,-0.49,0,*67
1498536508.16,8209,19.25,74032.8,7.11,0.63,-0.61,0,*66
1498536509.38,8210,19.25,74038.0,7.11,0.33,-0.73,0,*68
1498536510.6,8211,19.25,74034.0,7.11,0.17,-0.93,0,*61
1498536511.78,8212,19.25,74034.0,7.09,0.01,-0.97,0,*58
1498536512.98,8213,19.25,74030.5,7.09,-0.11,-1.09,0,*73
1498536514.16,8214,19.25,74028.0,7.09,-0.53,-1.29,0,*70
1498536515.36,8215,19.25,74030.5,7.11,-0.73,-1.33,0,*71
1498536516.6,8216,19.25,74032.0,7.11,-1.17,-1.47,0,*42
1498536517.84,8217,19.25,74032.8,7.11,-1.21,-1.47,0,*46
1498536519.04,8218,19.25,74032.0,7.09,-1.47,-1.59,0,*4F